Frederick, MD

2:58 PM EDT on May 20, 2018 (GMT -0400)
Frederick Municipal

Weather History for KFDK - November, 2012

Change the Weather History Date:

Saturday, November 10, 2012

  Actual Average (WUND) Record (WUND)
Temperature  
Mean Temperature 48 °F -  
Max Temperature 66 °F - - (-1)
Min Temperature 30 °F - - (-1)
Degree Days  
Heating Degree Days 17    
Moisture  
Dew Point 36 °F    
Average Humidity 90    
Maximum Humidity 100    
Minimum Humidity 43    
Precipitation  
Precipitation 0.00 in - - ()
Sea Level Pressure  
Sea Level Pressure 30.33 in    
Wind  
Wind Speed 0 mph (WSW)    
Max Wind Speed 4 mph    
Max Gust Speed -    
Visibility 8 miles    
Events      
Averages and records for this station are not official NWS values.
T = Trace of Precipitation, MM = Missing Value Source: NWS Daily Summary

Daily Weather History Graph

Daily Weather History Graph

Search for Another Location

Airport or City:

Astronomy

Nov. 10, 2012 Rise Set
Actual Time 6:48 AM EST 4:58 PM EST
Civil Twilight 6:19 AM EST 5:26 PM EST
Nautical Twilight 5:47 AM EST 5:58 PM EST
Astronomical Twilight 5:15 AM EST 6:30 PM EST
Moon 2:51 AM EST (11/10) 2:43 PM EST (11/10)
Length of Visible Light 11h 06m
Length of Day
10h 10m
Waning Crescent, 14% of the Moon is Illuminated
Nov 10
Waning Crescent
Nov 13
New
Nov 20
First Quarter
Nov 28
Full
Dec 6
Last Quarter

Hourly Weather History & Observations

Time (EST) Temp. Dew Point Humidity Pressure Visibility Wind Dir Wind Speed Gust Speed Precip Events Conditions
12:10 AM 32.0 °F 32.0 °F 100% 30.25 in 7.0 mi Calm Calm - N/A   Clear
12:30 AM 32.0 °F 32.0 °F 100% 30.26 in 10.0 mi Calm Calm - N/A   Clear
12:50 AM 32.0 °F 32.0 °F 100% 30.25 in 5.0 mi Calm Calm - N/A   Clear
1:10 AM 32.0 °F 32.0 °F 100% 30.27 in 7.0 mi Calm Calm - N/A   Clear
1:35 AM 32.0 °F 32.0 °F 100% 30.27 in 7.0 mi Calm Calm - N/A   Clear
1:55 AM 32.0 °F 32.0 °F 100% 30.27 in 5.0 mi Calm Calm - N/A   Clear
2:15 AM 32.0 °F 32.0 °F 100% 30.27 in 4.0 mi Calm Calm - N/A   Clear
2:35 AM 32.0 °F 32.0 °F 100% 30.28 in 4.0 mi Calm Calm - N/A   Clear
3:00 AM 32.0 °F 32.0 °F 100% 30.28 in 5.0 mi Calm Calm - N/A   Clear
3:20 AM 30.2 °F 30.2 °F 100% 30.28 in 4.0 mi Calm Calm - N/A   Clear
3:40 AM 30.2 °F 30.2 °F 100% 30.28 in 7.0 mi Calm Calm - N/A   Clear
4:00 AM 30.2 °F 30.2 °F 100% 30.29 in 3.0 mi Calm Calm - N/A   Clear
4:25 AM 30.2 °F 30.2 °F 100% 30.30 in 3.0 mi Calm Calm - N/A   Clear
4:45 AM 30.2 °F 30.2 °F 100% 30.30 in 4.0 mi Calm Calm - N/A   Clear
5:05 AM 30.2 °F 30.2 °F 100% 30.32 in 5.0 mi Calm Calm - N/A   Clear
5:25 AM 30.2 °F 30.2 °F 100% 30.32 in 5.0 mi Calm Calm - N/A   Clear
5:50 AM 30.2 °F 30.2 °F 100% 30.33 in 4.0 mi Calm Calm - N/A   Clear
6:50 AM 32.0 °F 32.0 °F 100% 30.33 in 6.0 mi Calm Calm - N/A   Haze
7:55 AM 35.6 °F 35.6 °F 100% 30.36 in 6.0 mi Calm Calm - N/A   Haze
8:50 AM 42.8 °F 39.2 °F 87% 30.36 in 7.0 mi Calm Calm - N/A   Clear
9:50 AM 48.2 °F 42.8 °F 82% 30.36 in 7.0 mi Calm Calm - N/A   Scattered Clouds
10:52 AM 57.2 °F 42.8 °F 59% 30.37 in 10.0 mi Calm Calm - N/A   Clear
11:52 AM 57.2 °F 41.0 °F 55% 30.33 in 10.0 mi Calm Calm - N/A   Clear
12:55 PM 64.4 °F 44.6 °F 49% 30.31 in 7.0 mi Calm Calm - N/A   Mostly Cloudy
1:45 PM 66.2 °F 42.8 °F 43% 30.29 in 10.0 mi Calm Calm - N/A   Clear
2:52 PM 64.4 °F 44.6 °F 49% 30.29 in 10.0 mi WSW 3.5 mph - N/A   Clear
4:48 PM 60.8 °F 42.8 °F 52% 30.30 in 10.0 mi Calm Calm - N/A   Clear
7:45 PM 46.4 °F 42.8 °F 87% 30.35 in 10.0 mi Calm Calm - N/A   Clear
8:00 PM 44.6 °F 41.0 °F 87% 30.36 in 10.0 mi Calm Calm - N/A   Clear
8:20 PM 42.8 °F 39.2 °F 87% 30.36 in 10.0 mi Calm Calm - N/A   Clear
8:40 PM 42.8 °F 39.2 °F 87% 30.37 in 10.0 mi Calm Calm - N/A   Clear
9:00 PM 41.0 °F 39.2 °F 93% 30.38 in 10.0 mi Calm Calm - N/A   Clear
9:25 PM 41.0 °F 39.2 °F 93% 30.39 in 10.0 mi Calm Calm - N/A   Clear
9:45 PM 39.2 °F 39.2 °F 100% 30.39 in 10.0 mi Calm Calm - N/A   Clear
10:05 PM 37.4 °F 37.4 °F 100% 30.39 in 10.0 mi Calm Calm - N/A   Clear
10:25 PM 37.4 °F 37.4 °F 100% 30.40 in 10.0 mi Calm Calm - N/A   Clear
10:50 PM 37.4 °F 37.4 °F 100% 30.40 in 10.0 mi Calm Calm - N/A   Clear
11:10 PM 37.4 °F 37.4 °F 100% 30.40 in 7.0 mi Calm Calm - N/A   Clear
11:30 PM 35.6 °F 35.6 °F 100% 30.40 in 10.0 mi Calm Calm - N/A   Clear
11:50 PM 35.6 °F 35.6 °F 100% 30.39 in 10.0 mi Calm Calm - N/A   Clear